Погода в Серпневом

Украина / Одесская область     46°18′09″N   29°01′21″E
темп.,
°C
ветер,
м/с
пор.,
м/с
влажн.,
%
обл.,
%
осадки,
мм/ч
давл.,
гПа
погр.,
м
5 марта, пт
пт523:00+8юз4859100 0.0 1012127
02:00+7з345686 0.0 101261
05:00+6ссз346567 0.0 101243
08:00+7св257054 0.0 1012168
11:00+11ююв235480 0.0 1012449
14:00+14зюз464186 0.0 10111038
17:00+13з3645100 0.0 1010246
20:00+10юз5114950 0.0 1012218
6 марта, сб
сб623:00+7ссз71181100 0.0 1014655
02:00+4ссз81177100 0.0 1018850
05:00+2с9127498 0.0 1020800
08:00+1с8116999 0.0 1024869
11:00+3с7943100 0.0 10261363
14:00+5с793392 0.0 10261698
17:00+4с68300 0.0 10272099
20:00+2с234935 0.0 102974
7 марта, вс
вс723:00+1зсз34590 0.0 103194
02:00−1сз36680 0.0 1031155
05:00−1сз25650 0.0 1029141
08:000зюз22490 0.0 1029210
11:00+4зюз68420 0.0 10271305
14:00+6зюз68380 0.0 10241378
17:00+7зюз57400 0.0 10211368
20:00+3ююз48550 0.0 1020184
8 марта, пн
пн823:00+2юз496624 0.0 1020215
02:00+1юз367639 0.0 1019123
05:000зюз12735 0.0 101823
08:00+2юв00593 0.0 101840
11:00+6в334046 0.0 1017853
14:00+8юв333773 0.0 10151266
17:00+8ю233782 0.0 10141298
20:00+4ююз235341 0.0 101528
9 марта, вт
вт923:00+3ююв126247 0.0 101522
02:00+2ссз236338 0.0 101628
05:00+1с510700 0.0 1017255
08:00+1с710765 0.0 1019548
11:00+4с57470 0.0 10211087
14:00+5с66380 0.0 10201372
17:00+4с56380 0.0 10201456
20:00+1ссв59523 0.0 1023480